Year,Month,Day,Hour,Minute,Value (Times are PST for temperature in C)
2012,08,05,00,00,17.10
2012,08,05,00,01,17.10
2012,08,05,00,02,17.10
2012,08,05,00,03,17.10
2012,08,05,00,04,17.10
2012,08,05,00,05,17.10
2012,08,05,00,06,17.10
2012,08,05,00,07,17.10
2012,08,05,00,08,17.10
2012,08,05,00,09,17.00
2012,08,05,00,10,17.00
2012,08,05,00,11,17.00
2012,08,05,00,12,17.00
2012,08,05,00,13,16.90
2012,08,05,00,14,16.90
2012,08,05,00,15,16.90
2012,08,05,00,16,16.90
2012,08,05,00,17,16.90
2012,08,05,00,18,16.90
2012,08,05,00,19,16.90
2012,08,05,00,20,16.90
2012,08,05,00,21,16.90
2012,08,05,00,22,16.80
2012,08,05,00,23,16.80
2012,08,05,00,24,16.80
2012,08,05,00,25,16.80
2012,08,05,00,26,16.80
2012,08,05,00,27,16.80
2012,08,05,00,28,16.80
2012,08,05,00,29,16.80
2012,08,05,00,30,16.80
2012,08,05,00,31,16.80
2012,08,05,00,32,16.80
2012,08,05,00,33,16.80
2012,08,05,00,34,16.80
2012,08,05,00,35,16.70
2012,08,05,00,36,16.70
2012,08,05,00,37,16.70
2012,08,05,00,38,16.70
2012,08,05,00,39,16.70
2012,08,05,00,40,16.70
2012,08,05,00,41,16.70
2012,08,05,00,42,16.70
2012,08,05,00,43,16.70
2012,08,05,00,44,16.70
2012,08,05,00,45,16.70
2012,08,05,00,46,16.70
2012,08,05,00,47,16.70
2012,08,05,00,48,16.70
2012,08,05,00,49,16.70
2012,08,05,00,50,16.70
2012,08,05,00,51,16.70
2012,08,05,00,52,16.70
2012,08,05,00,53,16.60
2012,08,05,00,54,16.60
2012,08,05,00,55,16.60
2012,08,05,00,56,16.60
2012,08,05,00,57,16.60
2012,08,05,00,58,16.60
2012,08,05,00,59,16.60
2012,08,05,01,00,16.60
2012,08,05,01,01,16.60
2012,08,05,01,02,16.60
2012,08,05,01,03,16.60
2012,08,05,01,04,16.60
2012,08,05,01,05,16.60
2012,08,05,01,06,16.50
2012,08,05,01,07,16.50
2012,08,05,01,08,16.50
2012,08,05,01,09,16.50
2012,08,05,01,10,16.50
2012,08,05,01,11,16.50
2012,08,05,01,12,16.50
2012,08,05,01,13,16.50
2012,08,05,01,14,16.50
2012,08,05,01,15,16.50
2012,08,05,01,16,16.50
2012,08,05,01,17,16.40
2012,08,05,01,18,16.40
2012,08,05,01,19,16.40
2012,08,05,01,20,16.40
2012,08,05,01,21,16.40
2012,08,05,01,22,16.40
2012,08,05,01,23,16.40
2012,08,05,01,24,16.40
2012,08,05,01,25,16.40
2012,08,05,01,26,16.40
2012,08,05,01,27,16.30
2012,08,05,01,28,16.30
2012,08,05,01,29,16.30
2012,08,05,01,30,16.30
2012,08,05,01,31,16.30
2012,08,05,01,32,16.30
2012,08,05,01,33,16.30
2012,08,05,01,34,16.30
2012,08,05,01,35,16.30
2012,08,05,01,36,16.30
2012,08,05,01,37,16.30
2012,08,05,01,38,16.30
2012,08,05,01,39,16.30
2012,08,05,01,40,16.30
2012,08,05,01,41,16.30
2012,08,05,01,42,16.30
2012,08,05,01,43,16.30
2012,08,05,01,44,16.30
2012,08,05,01,45,16.30
2012,08,05,01,46,16.30
2012,08,05,01,47,16.30
2012,08,05,01,48,16.20
2012,08,05,01,49,16.20
2012,08,05,01,50,16.20
2012,08,05,01,51,16.20
2012,08,05,01,52,16.20
2012,08,05,01,53,16.20
2012,08,05,01,54,16.20
2012,08,05,01,55,16.20
2012,08,05,01,56,16.20
2012,08,05,01,57,16.20
2012,08,05,01,58,16.20
2012,08,05,01,59,16.20
2012,08,05,02,00,16.20
2012,08,05,02,01,16.20
2012,08,05,02,02,16.30
2012,08,05,02,03,16.30
2012,08,05,02,04,16.30
2012,08,05,02,05,16.30
2012,08,05,02,06,16.30
2012,08,05,02,07,16.30
2012,08,05,02,08,16.20
2012,08,05,02,09,16.20
2012,08,05,02,10,16.20
2012,08,05,02,11,16.20
2012,08,05,02,12,16.20
2012,08,05,02,13,16.10
2012,08,05,02,14,16.10
2012,08,05,02,15,16.10
2012,08,05,02,16,16.10
2012,08,05,02,17,16.10
2012,08,05,02,18,16.10
2012,08,05,02,19,16.10
2012,08,05,02,20,16.10
2012,08,05,02,21,16.10
2012,08,05,02,22,16.10
2012,08,05,02,23,16.10
2012,08,05,02,24,16.10
2012,08,05,02,25,16.10
2012,08,05,02,26,16.10
2012,08,05,02,27,16.00
2012,08,05,02,28,16.00
2012,08,05,02,29,16.00
2012,08,05,02,30,15.90
2012,08,05,02,31,15.90
2012,08,05,02,32,15.90
2012,08,05,02,33,15.90
2012,08,05,02,34,15.90
2012,08,05,02,35,15.90
2012,08,05,02,36,15.90
2012,08,05,02,37,15.90
2012,08,05,02,38,15.90
2012,08,05,02,39,15.90
2012,08,05,02,40,15.90
2012,08,05,02,41,15.90
2012,08,05,02,42,15.90
2012,08,05,02,43,15.90
2012,08,05,02,44,15.90
2012,08,05,02,45,15.90
2012,08,05,02,46,15.90
2012,08,05,02,47,15.90
2012,08,05,02,48,16.00
2012,08,05,02,49,16.00
2012,08,05,02,50,16.00
2012,08,05,02,51,16.00
2012,08,05,02,52,16.00
2012,08,05,02,53,16.10
2012,08,05,02,54,16.10
2012,08,05,02,55,16.10
2012,08,05,02,56,16.10
2012,08,05,02,57,16.10
2012,08,05,02,58,16.20
2012,08,05,02,59,16.20
2012,08,05,03,00,16.20
2012,08,05,03,01,16.20
2012,08,05,03,02,16.20
2012,08,05,03,03,16.20
2012,08,05,03,04,16.20
2012,08,05,03,05,16.20
2012,08,05,03,06,16.20
2012,08,05,03,07,16.10
2012,08,05,03,08,16.10
2012,08,05,03,09,16.10
2012,08,05,03,10,16.10
2012,08,05,03,11,16.10
2012,08,05,03,12,16.10
2012,08,05,03,13,16.20
2012,08,05,03,14,16.20
2012,08,05,03,15,16.20
2012,08,05,03,16,16.20
2012,08,05,03,17,16.10
2012,08,05,03,18,16.10
2012,08,05,03,19,16.10
2012,08,05,03,20,16.10
2012,08,05,03,21,16.10
2012,08,05,03,22,16.10
2012,08,05,03,23,16.10
2012,08,05,03,24,16.10
2012,08,05,03,25,16.10
2012,08,05,03,26,16.10
2012,08,05,03,27,16.10
2012,08,05,03,28,16.10
2012,08,05,03,29,16.10
2012,08,05,03,30,16.10
2012,08,05,03,31,16.10
2012,08,05,03,32,16.10
2012,08,05,03,33,16.10
2012,08,05,03,34,16.10
2012,08,05,03,35,16.10
2012,08,05,03,36,16.10
2012,08,05,03,37,16.10
2012,08,05,03,38,16.10
2012,08,05,03,39,16.10
2012,08,05,03,40,16.10
2012,08,05,03,41,16.10
2012,08,05,03,42,16.10
2012,08,05,03,43,16.10
2012,08,05,03,44,16.10
2012,08,05,03,45,16.10
2012,08,05,03,46,16.10
2012,08,05,03,47,16.10
2012,08,05,03,48,16.10
2012,08,05,03,49,16.10
2012,08,05,03,50,16.10
2012,08,05,03,51,16.10
2012,08,05,03,52,16.10
2012,08,05,03,53,16.10
2012,08,05,03,54,16.10
2012,08,05,03,55,16.10
2012,08,05,03,56,16.00
2012,08,05,03,57,16.00
2012,08,05,03,58,16.00
2012,08,05,03,59,16.00
2012,08,05,04,00,16.00
2012,08,05,04,01,16.00
2012,08,05,04,02,16.00
2012,08,05,04,03,15.90
2012,08,05,04,04,15.90
2012,08,05,04,05,15.90
2012,08,05,04,06,15.90
2012,08,05,04,07,15.90
2012,08,05,04,08,15.90
2012,08,05,04,09,15.90
2012,08,05,04,10,15.90
2012,08,05,04,11,15.90
2012,08,05,04,12,15.90
2012,08,05,04,13,15.90
2012,08,05,04,14,15.90
2012,08,05,04,15,15.90
2012,08,05,04,16,15.90
2012,08,05,04,17,15.90
2012,08,05,04,18,15.90
2012,08,05,04,19,15.90
2012,08,05,04,20,15.90
2012,08,05,04,21,15.90
2012,08,05,04,22,15.90
2012,08,05,04,23,15.90
2012,08,05,04,24,15.90
2012,08,05,04,25,15.90
2012,08,05,04,26,15.90
2012,08,05,04,27,15.90
2012,08,05,04,28,15.90
2012,08,05,04,29,15.80
2012,08,05,04,30,15.80
2012,08,05,04,31,15.80
2012,08,05,04,32,15.70
2012,08,05,04,33,15.70
2012,08,05,04,34,15.70
2012,08,05,04,35,15.60
2012,08,05,04,36,15.60
2012,08,05,04,37,15.60
2012,08,05,04,38,15.60
2012,08,05,04,39,15.60
2012,08,05,04,40,15.60
2012,08,05,04,41,15.60
2012,08,05,04,42,15.60
2012,08,05,04,43,15.60
2012,08,05,04,44,15.60
2012,08,05,04,45,15.60
2012,08,05,04,46,15.60
2012,08,05,04,47,15.60
2012,08,05,04,48,15.60
2012,08,05,04,49,15.60
2012,08,05,04,50,15.60
2012,08,05,04,51,15.60
2012,08,05,04,52,15.60
2012,08,05,04,53,15.60
2012,08,05,04,54,15.60
2012,08,05,04,55,15.60
2012,08,05,04,56,15.60
2012,08,05,04,57,15.60
2012,08,05,04,58,15.60
2012,08,05,04,59,15.60
2012,08,05,05,00,15.60
2012,08,05,05,01,15.50
2012,08,05,05,02,15.50
2012,08,05,05,03,15.50
2012,08,05,05,04,15.50
2012,08,05,05,05,15.40
2012,08,05,05,06,15.40
2012,08,05,05,07,15.40
2012,08,05,05,08,15.40
2012,08,05,05,09,15.30
2012,08,05,05,10,15.30
2012,08,05,05,11,15.30
2012,08,05,05,12,15.30
2012,08,05,05,13,15.30
2012,08,05,05,14,15.30
2012,08,05,05,15,15.30
2012,08,05,05,16,15.30
2012,08,05,05,17,15.30
2012,08,05,05,18,15.30
2012,08,05,05,19,15.30
2012,08,05,05,20,15.30
2012,08,05,05,21,15.30
2012,08,05,05,22,15.30
2012,08,05,05,23,15.30
2012,08,05,05,24,15.30
2012,08,05,05,25,15.30
2012,08,05,05,26,15.30
2012,08,05,05,27,15.30
2012,08,05,05,28,15.30
2012,08,05,05,29,15.30
2012,08,05,05,30,15.30
2012,08,05,05,31,15.30
2012,08,05,05,32,15.30
2012,08,05,05,33,15.30
2012,08,05,05,34,15.30
2012,08,05,05,35,15.30
2012,08,05,05,36,15.40
2012,08,05,05,37,15.40
2012,08,05,05,38,15.40
2012,08,05,05,39,15.40
2012,08,05,05,40,15.40
2012,08,05,05,41,15.40
2012,08,05,05,42,15.40
2012,08,05,05,43,15.40
2012,08,05,05,44,15.40
2012,08,05,05,45,15.40
2012,08,05,05,46,15.40
2012,08,05,05,47,15.40
2012,08,05,05,48,15.40
2012,08,05,05,49,15.30
2012,08,05,05,50,15.30
2012,08,05,05,51,15.30
2012,08,05,05,52,15.30
2012,08,05,05,53,15.30
2012,08,05,05,54,15.20
2012,08,05,05,55,15.20
2012,08,05,05,56,15.20
2012,08,05,05,57,15.20
2012,08,05,05,58,15.20
2012,08,05,05,59,15.10
2012,08,05,06,00,15.10
2012,08,05,06,01,15.10
2012,08,05,06,02,15.10
2012,08,05,06,03,15.10
2012,08,05,06,04,15.10
2012,08,05,06,05,15.10
2012,08,05,06,06,15.10
2012,08,05,06,07,15.10
2012,08,05,06,08,15.00
2012,08,05,06,09,15.00
2012,08,05,06,10,15.00
2012,08,05,06,11,15.00
2012,08,05,06,12,15.00
2012,08,05,06,13,15.00
2012,08,05,06,14,15.00
2012,08,05,06,15,15.00
2012,08,05,06,16,15.00
2012,08,05,06,17,15.00
2012,08,05,06,18,15.00
2012,08,05,06,19,15.00
2012,08,05,06,20,15.00
2012,08,05,06,21,15.00
2012,08,05,06,22,15.00
2012,08,05,06,23,15.10
2012,08,05,06,24,15.10
2012,08,05,06,25,15.10
2012,08,05,06,26,15.10
2012,08,05,06,27,15.10
2012,08,05,06,28,15.10
2012,08,05,06,29,15.00
2012,08,05,06,30,15.00
2012,08,05,06,31,15.00
2012,08,05,06,32,15.00
2012,08,05,06,33,15.00
2012,08,05,06,34,15.00
2012,08,05,06,35,15.00
2012,08,05,06,36,15.00
2012,08,05,06,37,15.10
2012,08,05,06,38,15.10
2012,08,05,06,39,15.10
2012,08,05,06,40,15.10
2012,08,05,06,41,15.20
2012,08,05,06,42,15.20
2012,08,05,06,43,15.30
2012,08,05,06,44,15.30
2012,08,05,06,45,15.40
2012,08,05,06,46,15.40
2012,08,05,06,47,15.50
2012,08,05,06,48,15.60
2012,08,05,06,49,15.60
2012,08,05,06,50,15.70
2012,08,05,06,51,15.70
2012,08,05,06,52,15.80
2012,08,05,06,53,15.80
2012,08,05,06,54,15.80
2012,08,05,06,55,15.90
2012,08,05,06,56,15.90
2012,08,05,06,57,15.90
2012,08,05,06,58,16.00
2012,08,05,06,59,16.00
2012,08,05,07,00,16.10
2012,08,05,07,01,16.10
2012,08,05,07,02,16.10
2012,08,05,07,03,16.20
2012,08,05,07,04,16.20
2012,08,05,07,05,16.30
2012,08,05,07,06,16.30
2012,08,05,07,07,16.30
2012,08,05,07,08,16.40
2012,08,05,07,09,16.50
2012,08,05,07,10,16.50
2012,08,05,07,11,16.60
2012,08,05,07,12,16.70
2012,08,05,07,13,16.70
2012,08,05,07,14,16.80
2012,08,05,07,15,16.90
2012,08,05,07,16,17.00
2012,08,05,07,17,17.10
2012,08,05,07,18,17.20
2012,08,05,07,19,17.30
2012,08,05,07,20,17.40
2012,08,05,07,21,17.50
2012,08,05,07,22,17.60
2012,08,05,07,23,17.70
2012,08,05,07,24,17.70
2012,08,05,07,25,17.80
2012,08,05,07,26,17.80
2012,08,05,07,27,17.90
2012,08,05,07,28,18.00
2012,08,05,07,29,18.10
2012,08,05,07,30,18.10
2012,08,05,07,31,18.20
2012,08,05,07,32,18.30
2012,08,05,07,33,18.40
2012,08,05,07,34,18.50
2012,08,05,07,35,18.50
2012,08,05,07,36,18.70
2012,08,05,07,37,18.70
2012,08,05,07,38,18.90
2012,08,05,07,39,19.00
2012,08,05,07,40,19.10
2012,08,05,07,41,19.20
2012,08,05,07,42,19.30
2012,08,05,07,43,19.40
2012,08,05,07,44,19.50
2012,08,05,07,45,19.60
2012,08,05,07,46,19.70
2012,08,05,07,47,19.80
2012,08,05,07,48,19.90
2012,08,05,07,49,20.10
2012,08,05,07,50,20.20
2012,08,05,07,51,20.30
2012,08,05,07,52,20.40
2012,08,05,07,53,20.50
2012,08,05,07,54,20.60
2012,08,05,07,55,20.60
2012,08,05,07,56,20.70
2012,08,05,07,57,20.70
2012,08,05,07,58,20.70
2012,08,05,07,59,20.80
2012,08,05,08,00,20.90
2012,08,05,08,01,20.90
2012,08,05,08,02,20.90
2012,08,05,08,03,20.80
2012,08,05,08,04,20.70
2012,08,05,08,05,20.50
2012,08,05,08,06,20.40
2012,08,05,08,07,20.30
2012,08,05,08,08,20.20
2012,08,05,08,09,20.20
2012,08,05,08,10,20.30
2012,08,05,08,11,20.30
2012,08,05,08,12,20.30
2012,08,05,08,13,20.30
2012,08,05,08,14,20.30
2012,08,05,08,15,20.20
2012,08,05,08,16,20.10
2012,08,05,08,17,20.10
2012,08,05,08,18,20.10
2012,08,05,08,19,20.10
2012,08,05,08,20,20.10
2012,08,05,08,21,20.10
2012,08,05,08,22,20.20
2012,08,05,08,23,20.30
2012,08,05,08,24,20.40
2012,08,05,08,25,20.50
2012,08,05,08,26,20.70
2012,08,05,08,27,20.90
2012,08,05,08,28,21.00
2012,08,05,08,29,21.20
2012,08,05,08,30,21.40
2012,08,05,08,31,21.60
2012,08,05,08,32,21.70
2012,08,05,08,33,21.90
2012,08,05,08,34,22.00
2012,08,05,08,35,22.20
2012,08,05,08,36,22.30
2012,08,05,08,37,22.50
2012,08,05,08,38,22.60
2012,08,05,08,39,22.70
2012,08,05,08,40,22.70
2012,08,05,08,41,22.70
2012,08,05,08,42,22.70
2012,08,05,08,43,22.70
2012,08,05,08,44,22.70
2012,08,05,08,45,22.70
2012,08,05,08,46,22.70
2012,08,05,08,47,22.70
2012,08,05,08,48,22.70
2012,08,05,08,49,22.80
2012,08,05,08,50,22.80
2012,08,05,08,51,22.90
2012,08,05,08,52,22.90
2012,08,05,08,53,22.90
2012,08,05,08,54,22.90
2012,08,05,08,55,22.90
2012,08,05,08,56,22.80
2012,08,05,08,57,22.70
2012,08,05,08,58,22.60
2012,08,05,08,59,22.40
2012,08,05,09,00,22.30
2012,08,05,09,01,22.10
2012,08,05,09,02,22.00
2012,08,05,09,03,21.80
2012,08,05,09,04,21.60
2012,08,05,09,05,21.50
2012,08,05,09,06,21.40
2012,08,05,09,07,21.30
2012,08,05,09,08,21.20
2012,08,05,09,09,21.10
2012,08,05,09,10,21.00
2012,08,05,09,11,20.90
2012,08,05,09,12,20.80
2012,08,05,09,13,20.70
2012,08,05,09,14,20.70
2012,08,05,09,15,20.60
2012,08,05,09,16,20.60
2012,08,05,09,17,20.60
2012,08,05,09,18,20.50
2012,08,05,09,19,20.30
2012,08,05,09,20,20.10
2012,08,05,09,21,20.00
2012,08,05,09,22,19.90
2012,08,05,09,23,19.90
2012,08,05,09,24,19.90
2012,08,05,09,25,19.90
2012,08,05,09,26,19.90
2012,08,05,09,27,19.90
2012,08,05,09,28,19.90
2012,08,05,09,29,19.90
2012,08,05,09,30,19.80
2012,08,05,09,31,19.80
2012,08,05,09,32,19.70
2012,08,05,09,33,19.70
2012,08,05,09,34,19.70
2012,08,05,09,35,19.70
2012,08,05,09,36,19.80
2012,08,05,09,37,19.80
2012,08,05,09,38,19.90
2012,08,05,09,39,19.90
2012,08,05,09,40,19.90
2012,08,05,09,41,19.90
2012,08,05,09,42,19.90
2012,08,05,09,43,19.90
2012,08,05,09,44,19.90
2012,08,05,09,45,19.80
2012,08,05,09,46,19.80
2012,08,05,09,47,19.70
2012,08,05,09,48,19.70
2012,08,05,09,49,19.80
2012,08,05,09,50,19.80
2012,08,05,09,51,19.80
2012,08,05,09,52,19.80
2012,08,05,09,53,19.80
2012,08,05,09,54,19.90
2012,08,05,09,55,19.90
2012,08,05,09,56,19.90
2012,08,05,09,57,19.90
2012,08,05,09,58,19.90
2012,08,05,09,59,19.90
2012,08,05,10,00,19.90
2012,08,05,10,01,19.90
2012,08,05,10,02,19.90
2012,08,05,10,03,20.00
2012,08,05,10,04,20.00
2012,08,05,10,05,20.10
2012,08,05,10,06,20.10
2012,08,05,10,07,20.10
2012,08,05,10,08,20.00
2012,08,05,10,09,20.00
2012,08,05,10,10,19.90
2012,08,05,10,11,19.80
2012,08,05,10,12,19.80
2012,08,05,10,13,19.80
2012,08,05,10,14,19.70
2012,08,05,10,15,19.60
2012,08,05,10,16,19.50
2012,08,05,10,17,19.40
2012,08,05,10,18,19.40
2012,08,05,10,19,19.40
2012,08,05,10,20,19.40
2012,08,05,10,21,19.40
2012,08,05,10,22,19.30
2012,08,05,10,23,19.30
2012,08,05,10,24,19.30
2012,08,05,10,25,19.30
2012,08,05,10,26,19.20
2012,08,05,10,27,19.10
2012,08,05,10,28,19.10
2012,08,05,10,29,19.00
2012,08,05,10,30,19.00
2012,08,05,10,31,18.90
2012,08,05,10,32,19.00
2012,08,05,10,33,19.10
2012,08,05,10,34,19.00
2012,08,05,10,35,19.00
2012,08,05,10,36,18.90
2012,08,05,10,37,19.00
2012,08,05,10,38,18.90
2012,08,05,10,39,18.90
2012,08,05,10,40,18.90
2012,08,05,10,41,18.90
2012,08,05,10,42,18.90
2012,08,05,10,43,18.90
2012,08,05,10,44,18.90
2012,08,05,10,45,19.00
2012,08,05,10,46,19.00
2012,08,05,10,47,19.00
2012,08,05,10,48,18.90
2012,08,05,10,49,18.90
2012,08,05,10,50,18.90
2012,08,05,10,51,19.00
2012,08,05,10,52,19.00
2012,08,05,10,53,19.10
2012,08,05,10,54,19.10
2012,08,05,10,55,19.00
2012,08,05,10,56,19.00
2012,08,05,10,57,19.00
2012,08,05,10,58,19.10
2012,08,05,10,59,19.10
2012,08,05,11,00,19.10
2012,08,05,11,01,19.10
2012,08,05,11,02,19.10
2012,08,05,11,03,19.10
2012,08,05,11,04,19.20
2012,08,05,11,05,19.30
2012,08,05,11,06,19.40
2012,08,05,11,07,19.40
2012,08,05,11,08,19.40
2012,08,05,11,09,19.40
2012,08,05,11,10,19.40
2012,08,05,11,11,19.30
2012,08,05,11,12,19.30
2012,08,05,11,13,19.30
2012,08,05,11,14,19.30
2012,08,05,11,15,19.30
2012,08,05,11,16,19.20
2012,08,05,11,17,19.10
2012,08,05,11,18,19.00
2012,08,05,11,19,18.80
2012,08,05,11,20,18.70
2012,08,05,11,21,18.60
2012,08,05,11,22,18.50
2012,08,05,11,23,18.50
2012,08,05,11,24,18.50
2012,08,05,11,25,18.40
2012,08,05,11,26,18.20
2012,08,05,11,27,18.10
2012,08,05,11,28,17.90
2012,08,05,11,29,17.90
2012,08,05,11,30,17.80
2012,08,05,11,31,17.80
2012,08,05,11,32,17.70
2012,08,05,11,33,17.60
2012,08,05,11,34,17.50
2012,08,05,11,35,17.30
2012,08,05,11,36,17.20
2012,08,05,11,37,17.10
2012,08,05,11,38,17.00
2012,08,05,11,39,17.00
2012,08,05,11,40,16.90
2012,08,05,11,41,16.90
2012,08,05,11,42,16.90
2012,08,05,11,43,16.90
2012,08,05,11,44,16.90
2012,08,05,11,45,17.00
2012,08,05,11,46,17.00
2012,08,05,11,47,17.10
2012,08,05,11,48,17.10
2012,08,05,11,49,17.10
2012,08,05,11,50,17.10
2012,08,05,11,51,17.10
2012,08,05,11,52,17.10
2012,08,05,11,53,17.10
2012,08,05,11,54,17.20
2012,08,05,11,55,17.10
2012,08,05,11,56,17.10
2012,08,05,11,57,17.10
2012,08,05,11,58,17.00
2012,08,05,11,59,16.90
2012,08,05,12,00,16.80
2012,08,05,12,01,16.80
2012,08,05,12,02,16.70
2012,08,05,12,03,16.60
2012,08,05,12,04,16.60
2012,08,05,12,05,16.50
2012,08,05,12,06,16.60
2012,08,05,12,07,16.60
2012,08,05,12,08,16.70
2012,08,05,12,09,16.80
2012,08,05,12,10,16.80
2012,08,05,12,11,16.90
2012,08,05,12,12,16.90
2012,08,05,12,13,16.90
2012,08,05,12,14,16.90
2012,08,05,12,15,16.90
2012,08,05,12,16,16.90
2012,08,05,12,17,16.80
2012,08,05,12,18,16.80
2012,08,05,12,19,16.80
2012,08,05,12,20,16.80
2012,08,05,12,21,16.70
2012,08,05,12,22,16.60
2012,08,05,12,23,16.60
2012,08,05,12,24,16.60
2012,08,05,12,25,16.60
2012,08,05,12,26,16.60
2012,08,05,12,27,16.60
2012,08,05,12,28,16.60
2012,08,05,12,29,16.70
2012,08,05,12,30,16.70
2012,08,05,12,31,16.80
2012,08,05,12,32,16.90
2012,08,05,12,33,17.00
2012,08,05,12,34,17.10
2012,08,05,12,35,17.10
2012,08,05,12,36,16.90
2012,08,05,12,37,16.70
2012,08,05,12,38,16.60
2012,08,05,12,39,16.50
2012,08,05,12,40,16.50
2012,08,05,12,41,16.50
2012,08,05,12,42,16.50
2012,08,05,12,43,16.40
2012,08,05,12,44,16.30
2012,08,05,12,45,16.20
2012,08,05,12,46,16.20
2012,08,05,12,47,16.20
2012,08,05,12,48,16.20
2012,08,05,12,49,16.20
2012,08,05,12,50,16.40
2012,08,05,12,51,16.40
2012,08,05,12,52,16.40
2012,08,05,12,53,16.40
2012,08,05,12,54,16.30
2012,08,05,12,55,16.40
2012,08,05,12,56,16.40
2012,08,05,12,57,16.30
2012,08,05,12,58,16.30
2012,08,05,12,59,16.30
2012,08,05,13,00,16.20
2012,08,05,13,01,16.20
2012,08,05,13,02,16.20
2012,08,05,13,03,16.10
2012,08,05,13,04,16.00
2012,08,05,13,05,15.90
2012,08,05,13,06,15.70
2012,08,05,13,07,15.50
2012,08,05,13,08,15.40
2012,08,05,13,09,15.40
2012,08,05,13,10,15.40
2012,08,05,13,11,15.40
2012,08,05,13,12,15.40
2012,08,05,13,13,15.40
2012,08,05,13,14,15.40
2012,08,05,13,15,15.30
2012,08,05,13,16,15.30
2012,08,05,13,17,15.20
2012,08,05,13,18,15.30
2012,08,05,13,19,15.40
2012,08,05,13,20,15.50
2012,08,05,13,21,15.40
2012,08,05,13,22,15.40
2012,08,05,13,23,15.20
2012,08,05,13,24,15.20
2012,08,05,13,25,15.20
2012,08,05,13,26,15.10
2012,08,05,13,27,15.10
2012,08,05,13,28,15.00
2012,08,05,13,29,15.00
2012,08,05,13,30,15.10
2012,08,05,13,31,15.10
2012,08,05,13,32,15.00
2012,08,05,13,33,14.90
2012,08,05,13,34,14.90
2012,08,05,13,35,15.00
2012,08,05,13,36,15.00
2012,08,05,13,37,15.00
2012,08,05,13,38,15.00
2012,08,05,13,39,15.00
2012,08,05,13,40,14.90
2012,08,05,13,41,14.90
2012,08,05,13,42,14.90
2012,08,05,13,43,14.90
2012,08,05,13,44,15.00
2012,08,05,13,45,15.00
2012,08,05,13,46,15.10
2012,08,05,13,47,15.10
2012,08,05,13,48,15.10
2012,08,05,13,49,15.30
2012,08,05,13,50,15.40
2012,08,05,13,51,15.60
2012,08,05,13,52,15.70
2012,08,05,13,53,15.80
2012,08,05,13,54,15.80
2012,08,05,13,55,15.80
2012,08,05,13,56,15.80
2012,08,05,13,57,15.80
2012,08,05,13,58,15.80
2012,08,05,13,59,15.80
2012,08,05,14,00,15.80
2012,08,05,14,01,15.80
2012,08,05,14,02,15.80
2012,08,05,14,03,15.80
2012,08,05,14,04,15.80
2012,08,05,14,05,15.80
2012,08,05,14,06,15.90
2012,08,05,14,07,15.90
2012,08,05,14,08,16.00
2012,08,05,14,09,16.00
2012,08,05,14,10,16.20
2012,08,05,14,11,16.30
2012,08,05,14,12,16.50
2012,08,05,14,13,16.60
2012,08,05,14,14,16.60
2012,08,05,14,15,16.70
2012,08,05,14,16,16.80
2012,08,05,14,17,16.90
2012,08,05,14,18,16.90
2012,08,05,14,19,16.90
2012,08,05,14,20,17.00
2012,08,05,14,21,17.10
2012,08,05,14,22,17.10
2012,08,05,14,23,17.20
2012,08,05,14,24,17.30
2012,08,05,14,25,17.40
2012,08,05,14,26,17.50
2012,08,05,14,27,17.60
2012,08,05,14,28,17.60
2012,08,05,14,29,17.40
2012,08,05,14,30,17.40
2012,08,05,14,31,17.20
2012,08,05,14,32,17.20
2012,08,05,14,33,17.10
2012,08,05,14,34,17.10
2012,08,05,14,35,17.00
2012,08,05,14,36,17.00
2012,08,05,14,37,17.10
2012,08,05,14,38,17.00
2012,08,05,14,39,16.90
2012,08,05,14,40,16.80
2012,08,05,14,41,16.70
2012,08,05,14,42,16.70
2012,08,05,14,43,16.80
2012,08,05,14,44,16.90
2012,08,05,14,45,17.00
2012,08,05,14,46,17.00
2012,08,05,14,47,17.10
2012,08,05,14,48,17.20
2012,08,05,14,49,17.30
2012,08,05,14,50,17.30
2012,08,05,14,51,17.40
2012,08,05,14,52,17.40
2012,08,05,14,53,17.40
2012,08,05,14,54,17.50
2012,08,05,14,55,17.50
2012,08,05,14,56,17.50
2012,08,05,14,57,17.40
2012,08,05,14,58,17.40
2012,08,05,14,59,17.30
2012,08,05,15,00,17.20
2012,08,05,15,01,17.10
2012,08,05,15,02,17.00
2012,08,05,15,03,16.90
2012,08,05,15,04,16.80
2012,08,05,15,05,16.60
2012,08,05,15,06,16.50
2012,08,05,15,07,16.50
2012,08,05,15,08,16.50
2012,08,05,15,09,16.40
2012,08,05,15,10,16.40
2012,08,05,15,11,16.40
2012,08,05,15,12,16.40
2012,08,05,15,13,16.20
2012,08,05,15,14,16.10
2012,08,05,15,15,15.90
2012,08,05,15,16,15.80
2012,08,05,15,17,15.60
2012,08,05,15,18,15.60
2012,08,05,15,19,15.50
2012,08,05,15,20,15.50
2012,08,05,15,21,15.50
2012,08,05,15,22,15.40
2012,08,05,15,23,15.40
2012,08,05,15,24,15.30
2012,08,05,15,25,15.20
2012,08,05,15,26,15.20
2012,08,05,15,27,15.20
2012,08,05,15,28,15.20
2012,08,05,15,29,15.10
2012,08,05,15,30,15.10
2012,08,05,15,31,15.10
2012,08,05,15,32,15.20
2012,08,05,15,33,15.30
2012,08,05,15,34,15.40
2012,08,05,15,35,15.50
2012,08,05,15,36,15.60
2012,08,05,15,37,15.70
2012,08,05,15,38,15.70
2012,08,05,15,39,15.80
2012,08,05,15,40,15.80
2012,08,05,15,41,15.90
2012,08,05,15,42,15.90
2012,08,05,15,43,16.00
2012,08,05,15,44,16.00
2012,08,05,15,45,16.10
2012,08,05,15,46,16.10
2012,08,05,15,47,16.00
2012,08,05,15,48,16.00
2012,08,05,15,49,15.90
2012,08,05,15,50,15.80
2012,08,05,15,51,15.90
2012,08,05,15,52,15.90
2012,08,05,15,53,15.80
2012,08,05,15,54,15.80
2012,08,05,15,55,15.80
2012,08,05,15,56,15.80
2012,08,05,15,57,15.70
2012,08,05,15,58,15.50
2012,08,05,15,59,15.40
2012,08,05,16,00,15.30
2012,08,05,16,01,15.20
2012,08,05,16,02,15.30
2012,08,05,16,03,15.30
2012,08,05,16,04,15.30
2012,08,05,16,05,15.20
2012,08,05,16,06,15.20
2012,08,05,16,07,15.20
2012,08,05,16,08,15.20
2012,08,05,16,09,15.20
2012,08,05,16,10,15.30
2012,08,05,16,11,15.40
2012,08,05,16,12,15.40
2012,08,05,16,13,15.60
2012,08,05,16,14,15.70
2012,08,05,16,15,15.80
2012,08,05,16,16,15.90
2012,08,05,16,17,15.80
2012,08,05,16,18,15.80
2012,08,05,16,19,15.70
2012,08,05,16,20,15.70
2012,08,05,16,21,15.60
2012,08,05,16,22,15.50
2012,08,05,16,23,15.50
2012,08,05,16,24,15.50
2012,08,05,16,25,15.40
2012,08,05,16,26,15.30
2012,08,05,16,27,15.30
2012,08,05,16,28,15.30
2012,08,05,16,29,15.20
2012,08,05,16,30,15.20
2012,08,05,16,31,15.10
2012,08,05,16,32,15.10
2012,08,05,16,33,15.20
2012,08,05,16,34,15.30
2012,08,05,16,35,15.40
2012,08,05,16,36,15.40
2012,08,05,16,37,15.40
2012,08,05,16,38,15.50
2012,08,05,16,39,15.50
2012,08,05,16,40,15.60
2012,08,05,16,41,15.70
2012,08,05,16,42,15.80
2012,08,05,16,43,15.90
2012,08,05,16,44,16.00
2012,08,05,16,45,16.00
2012,08,05,16,46,16.10
2012,08,05,16,47,16.10
2012,08,05,16,48,16.20
2012,08,05,16,49,16.20
2012,08,05,16,50,16.20
2012,08,05,16,51,16.20
2012,08,05,16,52,16.20
2012,08,05,16,53,16.10
2012,08,05,16,54,15.90
2012,08,05,16,55,15.80
2012,08,05,16,56,15.70
2012,08,05,16,57,15.50
2012,08,05,16,58,15.30
2012,08,05,16,59,15.20
2012,08,05,17,00,15.30
2012,08,05,17,01,15.30
2012,08,05,17,02,15.30
2012,08,05,17,03,15.30
2012,08,05,17,04,15.30
2012,08,05,17,05,15.30
2012,08,05,17,06,15.30
2012,08,05,17,07,15.20
2012,08,05,17,08,15.20
2012,08,05,17,09,15.20
2012,08,05,17,10,15.30
2012,08,05,17,11,15.30
2012,08,05,17,12,15.40
2012,08,05,17,13,15.50
2012,08,05,17,14,15.50
2012,08,05,17,15,15.60
2012,08,05,17,16,15.50
2012,08,05,17,17,15.50
2012,08,05,17,18,15.50
2012,08,05,17,19,15.50